SCP
1 1 1 0 0 0 0 0 0 0 1 1 1 1 1 1 0 0 0 0 0 1 0 0 0 0 1 1 1 1 1 1 1 1 1 1 0 0 0 1 1 0 0 0 0 1 1 0 0
1 1 0 0 0 0 0 0 0 0 1 1 1 1 1 1 0 0 0 0 1 1 0 0 0 1 1 1 1 1 1 1 0 0 0 0 0 0 0 0 0 0 0 0 0 0 0 0 0
0 0 0 0 0 0 0 0 1 1 1 1 1 1 1 1 0 0 0 0 1 1 1 1 1 1 1 1 0 0 0 0 0 0 0 0 0 0 0 0 0 0 0 0 0 0 0 0 0
0 0 0 0 0 0 0 1 1 1 1 1 1 1 1 1 1 0 1 1 1 1 1 1 1 1 1 1 1 1 0 0 0 0 0 0 0 0 0 0 0 0 0 0 0 0 0 0 0
0 0 0 0 0 0 0 1 1 1 1 1 1 1 1 1 1 1 1 1 1 1 1 1 1 1 1 1 1 1 1 0 0 0 0 0 0 0 0 0 0 0 0 0 0 0 0 0 0
0 0 0 0 0 0 0 0 1 1 1 1 1 1 1 1 1 1 1 1 1 1 1 1 1 1 1 1 1 1 1 0 0 0 0 0 0 0 0 0 0 0 0 0 0 0 0 0 0
0 0 0 0 0 0 0 1 1 1 1 1 1 1 1 1 1 1 1 1 1 1 1 1 1 1 1 1 1 1 1 1 1 0 0 0 0 0 0 0 0 0 0 0 0 0 0 0 0
0 0 0 0 0 0 0 1 1 1 1 1 1 1 1 1 2 2 1 1 1 2 2 1 1 1 1 1 1 1 1 1 1 0 0 0 0 0 0 0 0 0 0 0 0 0 0 0 0
0 0 0 0 0 0 1 1 1 1 2 1 1 1 1 2 3 2 2 2 1 1 2 2 1 1 1 1 1 1 1 1 1 0 0 0 0 0 0 0 0 0 0 0 0 0 0 0 0
0 0 0 0 0 0 1 1 1 1 2 2 2 2 2 3 4 3 3 2 1 1 2 2 1 1 1 1 1 1 1 1 1 1 1 0 0 0 0 0 0 0 0 0 0 0 0 0 0
0 0 0 0 0 0 1 1 2 2 1 2 2 2 2 3 4 4 3 2 2 1 2 2 2 2 2 1 1 1 1 1 1 1 1 1 1 0 0 0 0 0 0 0 0 0 0 0 0
0 0 0 0 0 0 1 1 2 2 1 2 2 3 3 3 3 3 2 2 2 2 2 2 2 2 2 2 1 1 1 1 1 1 1 1 1 0 0 0 0 0 0 0 0 0 0 0 0
0 0 0 0 0 0 1 1 2 2 2 2 2 3 3 2 2 2 2 2 2 2 2 1 2 2 2 2 2 2 1 1 1 1 1 1 1 0 0 0 0 0 0 0 0 0 0 0 0
0 0 0 0 0 0 1 1 1 1 2 2 2 2 2 2 2 2 2 2 2 2 1 1 2 2 2 2 3 3 2 2 2 1 1 1 0 0 0 0 0 0 0 0 0 0 0 0 0
0 0 0 0 0 0 0 1 1 2 2 2 2 2 2 2 2 2 2 2 2 2 1 1 1 2 2 2 3 3 3 2 2 1 1 1 1 0 0 0 1 1 0 0 0 0 0 0 0
0 0 0 0 0 0 0 1 1 2 3 3 2 2 2 2 2 2 2 2 3 2 1 1 2 2 2 2 3 3 3 2 1 1 1 1 1 0 0 0 0 1 0 0 0 0 0 0 0
0 0 0 0 0 0 0 1 1 2 3 3 2 2 2 2 3 3 3 3 3 3 2 2 2 2 2 2 3 3 2 1 1 1 1 1 0 0 0 0 0 0 1 0 0 0 0 0 0
0 0 0 0 0 0 0 1 1 2 3 3 2 2 3 3 3 3 3 3 3 2 2 2 2 2 2 2 2 2 1 1 1 1 1 0 0 0 0 0 0 0 1 0 0 0 0 0 0
0 0 0 0 0 0 0 1 1 2 3 3 3 4 4 4 4 4 3 3 3 2 2 2 2 2 2 2 2 1 1 1 1 0 0 0 0 0 0 0 0 0 0 0 0 0 0 0 0
0 0 0 0 0 0 1 1 1 2 2 3 3 4 5 5 5 4 4 4 3 3 3 2 2 2 2 2 2 1 1 1 1 1 0 0 0 0 0 0 0 0 0 0 0 0 0 0 0
0 0 0 0 0 0 1 1 1 1 2 2 3 4 4 4 4 4 4 4 3 3 3 3 2 2 2 2 1 1 1 1 1 1 1 0 0 0 0 0 0 0 1 1 0 0 0 0 0
0 0 0 0 0 0 0 0 0 1 1 2 2 3 3 4 3 4 4 4 4 4 3 3 2 2 2 2 2 1 1 1 1 1 1 0 0 0 0 1 1 1 1 1 1 0 0 0 0
0 0 0 0 0 0 0 0 0 0 1 1 2 3 3 3 3 3 4 5 4 3 3 3 2 2 2 2 2 2 2 1 1 1 1 1 1 1 1 1 1 1 1 1 0 0 0 0 0
0 0 0 0 0 0 0 0 0 0 0 1 2 2 3 3 3 4 4 4 4 3 3 2 2 2 2 2 2 2 2 2 1 1 1 1 1 1 1 1 1 1 0 0 0 0 0 0 0
0 0 0 0 0 0 0 0 0 0 0 1 2 3 3 3 3 4 4 4 3 3 2 2 2 2 2 2 2 2 2 2 1 1 1 1 1 1 1 1 1 1 0 0 0 0 0 0 0
0 0 0 0 0 0 0 0 0 0 1 1 2 2 3 2 2 3 3 3 3 2 2 2 2 2 2 2 1 2 2 2 1 1 1 1 1 1 1 1 1 1 1 0 0 0 0 0 0
0 0 0 0 0 0 0 0 0 1 1 2 2 2 2 2 2 2 2 3 3 2 2 2 2 2 2 1 1 1 2 1 1 1 1 1 1 1 1 1 1 1 1 1 0 0 0 0 0
0 0 0 0 0 0 0 0 0 1 1 2 2 2 2 2 2 2 2 2 2 2 2 2 2 2 2 1 1 1 1 1 1 1 1 1 0 0 0 0 1 1 1 0 0 0 0 0 0
0 0 0 0 0 0 0 0 0 1 1 2 2 2 2 2 3 2 2 2 2 2 2 3 2 2 1 1 1 1 1 1 1 1 1 0 0 0 0 0 1 1 1 1 0 0 0 0 0
0 0 0 0 0 0 0 0 0 1 1 2 2 1 2 3 3 3 2 2 2 2 3 3 2 1 1 1 1 1 1 1 1 1 1 1 0 0 0 1 1 1 1 1 1 1 0 0 0
Wind_Speed
3 2 2 1 5 6 4 4 2 3 3 2 4 5 6 4 2 2 3 9 12 11 9 12 15 15 14 14 15 15 15 15 14 14 14 13 13 13 13 13 13 13 14 14 14 14 14 15 15
2 3 1 3 6 4 4 4 4 3 2 3 5 5 5 4 4 7 6 8 13 11 8 10 15 15 15 14 14 14 14 14 14 14 13 13 13 12 12 13 13 13 13 14 14 14 14 14 15
2 2 3 5 4 2 2 3 1 2 2 2 3 4 4 4 6 6 6 12 12 9 7 10 17 16 15 14 14 13 14 13 13 13 13 13 12 12 12 13 13 13 13 13 14 14 14 14 14
2 3 5 6 2 2 3 3 1 1 2 4 4 5 4 3 5 7 12 13 12 9 7 10 16 16 15 14 14 13 13 13 12 12 12 12 12 12 12 12 13 13 13 13 14 14 14 14 14
3 4 6 4 2 3 3 3 3 1 1 2 3 4 3 4 9 13 14 13 12 9 7 9 15 15 15 14 14 13 13 12 12 12 12 12 12 12 11 12 12 13 13 13 14 13 13 13 13
4 5 5 2 4 3 2 2 2 1 2 2 3 4 2 4 10 13 12 11 9 9 7 8 15 15 14 14 13 13 13 12 12 11 11 11 11 11 11 12 12 13 13 13 13 13 12 12 12
4 4 3 0 3 3 1 1 3 2 2 2 4 5 2 4 7 10 10 9 8 7 6 6 7 10 13 14 13 13 13 12 12 11 11 11 11 11 11 11 12 12 12 12 12 12 11 11 11
4 5 2 0 1 3 1 1 1 3 2 3 4 6 6 7 10 10 10 8 8 6 6 5 6 5 6 7 12 13 13 12 11 11 11 11 11 10 11 10 11 11 11 11 11 11 10 10 10
4 5 0 3 3 3 2 1 1 2 4 3 2 4 6 16 15 13 11 8 8 8 5 5 6 5 5 5 9 10 11 11 10 9 11 8 4 4 6 8 10 11 11 10 10 10 9 9 9
4 2 5 5 4 3 3 3 3 2 2 2 3 6 15 17 16 15 15 14 13 11 8 5 6 6 5 6 4 3 4 5 4 3 5 4 3 3 5 6 9 10 10 9 9 9 8 6 4
3 4 4 4 4 3 3 3 3 5 5 7 8 13 17 17 14 14 14 13 12 11 10 7 6 6 6 4 4 2 2 3 4 4 5 4 3 2 2 2 3 4 6 4 5 5 4 3 3
2 5 4 5 2 2 4 3 3 7 9 6 10 18 18 18 17 16 15 13 10 10 10 8 7 6 5 4 4 3 3 3 3 3 5 3 2 2 2 2 2 2 2 3 3 2 3 3 4
2 4 3 5 5 3 3 5 4 6 5 6 13 16 17 17 15 12 10 9 10 11 10 10 8 7 5 4 4 4 3 3 3 3 3 4 3 3 2 1 1 2 2 3 2 2 3 3 3
3 4 6 6 3 1 3 3 3 5 5 10 14 15 15 15 14 11 11 11 11 11 11 9 9 7 6 5 4 4 4 3 3 3 4 4 3 3 3 2 2 2 2 2 2 2 2 2 2
2 4 7 3 2 1 2 3 4 4 8 10 12 12 12 12 12 14 14 12 11 10 10 10 9 8 7 7 6 4 4 4 4 3 4 4 4 4 3 2 2 2 2 2 2 2 2 2 2
4 4 4 6 2 1 2 5 5 4 9 9 10 10 10 10 11 11 10 9 9 9 9 9 9 9 7 6 5 4 4 4 4 4 4 5 5 5 3 3 3 2 2 2 2 2 2 2 2
5 3 3 7 3 2 0 6 4 3 8 8 8 9 9 8 8 8 10 10 10 11 10 10 8 9 8 6 5 4 4 4 4 4 4 5 5 5 4 3 3 3 2 2 2 2 2 2 2
1 1 3 6 5 3 2 5 4 2 6 7 7 7 8 9 10 8 9 10 9 9 9 10 8 8 8 5 4 3 3 3 3 4 5 6 5 5 4 3 3 4 3 3 2 2 2 1 2
2 1 5 7 5 2 3 4 4 1 3 5 5 6 8 9 6 5 7 8 8 8 9 9 9 8 7 5 5 5 4 4 4 4 5 6 6 6 5 4 4 4 4 4 4 3 3 2 2
2 3 5 7 3 1 2 4 3 1 4 6 7 8 8 6 5 6 7 8 9 10 10 9 9 9 8 6 5 3 3 3 3 3 4 6 6 6 6 5 4 5 4 4 4 3 3 2 2
3 4 5 5 6 5 2 5 4 2 1 2 3 4 5 8 8 8 8 8 9 9 10 10 10 9 9 7 4 3 3 2 2 3 4 5 6 7 6 6 5 5 5 5 5 5 5 3 2
5 6 6 3 1 4 2 3 6 3 3 3 4 4 5 6 6 6 7 8 9 10 9 8 9 8 8 8 7 8 6 5 5 4 4 4 6 6 6 6 6 6 5 5 6 5 4 4 3
7 2 2 1 2 1 3 1 8 2 4 6 5 4 4 5 7 7 8 8 8 8 8 8 7 8 8 7 8 7 5 4 3 3 5 4 4 5 6 6 6 6 5 5 5 5 5 4 4
4 5 5 5 5 1 2 2 7 4 6 5 4 3 3 6 6 6 5 6 6 6 7 7 7 7 7 8 8 8 7 6 5 5 5 4 3 3 5 6 6 6 5 6 5 5 6 5 4
4 6 5 5 5 5 3 2 9 7 5 5 5 3 3 5 6 6 6 6 6 7 7 7 7 7 7 7 7 7 7 7 7 6 6 5 4 4 5 5 5 5 5 6 5 5 5 6 5
5 9 8 5 4 5 3 4 8 5 4 2 3 4 4 4 4 5 6 6 6 6 6 7 7 7 7 7 7 6 7 5 4 5 5 6 5 5 5 6 6 6 6 6 5 5 5 5 5
7 4 7 8 3 1 5 7 8 2 2 2 3 5 5 4 5 5 6 6 6 7 6 6 7 6 6 7 6 6 6 6 6 5 4 4 4 4 5 6 6 5 5 6 6 4 5 5 5
6 10 7 7 6 3 4 5 5 5 4 3 4 5 4 4 5 5 5 5 5 5 5 5 5 5 5 5 5 5 5 5 5 5 5 5 5 4 5 5 5 5 5 5 5 4 4 5 5
5 5 6 5 6 7 3 8 8 8 7 7 6 6 6 6 6 6 5 5 5 4 4 4 4 4 4 4 4 4 4 4 4 4 5 5 4 4 5 5 5 5 5 4 4 4 5 6 5
6 8 9 7 5 5 5 9 5 5 5 6 6 6 5 6 6 6 6 5 5 4 4 4 4 4 4 4 3 3 3 3 3 3 3 4 4 4 5 5 5 5 5 4 5 5 5 5 5
Wind_Direction
205 161 153 103 55 47 15 338 11 40 39 56 98 102 108 102 155 153 122 137 134 139 144 145 142 137 132 127 123 119 118 117 116 117 117 118 119 119 119 118 115 113 112 110 109 109 108 110 110
158 164 124 59 70 48 335 330 20 38 110 109 82 84 82 75 76 106 127 140 137 139 140 145 144 141 136 132 127 124 121 120 120 120 120 120 120 121 120 118 116 115 113 112 112 111 110 111 112
186 174 78 64 76 132 282 314 21 32 64 81 82 68 84 117 128 137 148 141 134 136 138 151 147 144 141 136 132 129 126 125 123 123 122 122 122 122 121 120 118 117 116 115 114 114 114 114 113
136 55 52 64 69 225 225 239 202 72 28 46 89 76 70 99 139 140 139 140 136 135 140 154 150 147 144 141 137 134 131 129 127 126 124 123 123 122 122 122 120 118 117 116 116 116 116 115 115
66 71 56 40 321 264 234 221 181 136 53 48 84 92 61 36 110 130 139 142 140 138 141 153 151 150 148 146 143 139 136 133 131 129 127 125 124 124 124 122 121 118 117 117 117 117 116 115 116
57 62 67 12 317 298 248 203 140 106 98 87 94 101 68 106 127 138 140 139 140 141 140 148 154 154 153 152 149 145 141 139 136 133 131 129 127 127 125 123 122 120 118 118 118 117 114 113 115
93 86 109 200 309 312 253 145 153 149 132 148 124 109 107 135 138 134 132 131 132 136 136 143 150 156 159 156 153 149 146 143 141 138 135 133 131 129 128 126 125 122 121 120 119 119 116 114 117
117 99 80 272 257 274 239 129 159 153 161 123 124 146 178 164 137 126 123 126 132 133 137 140 140 143 151 155 157 153 150 148 146 144 141 139 137 134 130 126 128 126 125 123 120 118 116 116 117
89 74 156 223 209 252 202 169 189 135 123 125 139 167 156 138 137 134 136 140 152 154 149 145 143 141 143 149 163 156 155 154 149 147 145 133 109 111 122 133 134 131 129 126 123 118 114 110 110
91 124 233 217 205 213 211 198 178 140 143 163 101 98 129 142 150 155 160 166 170 171 168 158 153 150 151 160 144 138 139 136 124 116 118 106 107 117 126 144 141 137 132 130 125 117 106 93 88
151 202 244 252 226 209 204 209 171 153 214 212 176 151 151 155 163 169 173 175 175 172 172 168 161 158 157 146 140 130 120 119 119 121 118 115 108 105 101 101 119 117 118 103 104 94 89 96 103
196 251 243 268 256 201 199 188 182 195 224 203 162 155 161 169 176 179 178 176 170 171 176 168 167 166 163 149 144 134 131 129 130 134 133 126 120 115 115 107 103 96 99 103 96 96 99 105 116
240 280 279 262 279 239 207 203 201 232 233 135 139 155 170 177 182 178 172 168 168 175 177 174 172 168 160 150 152 150 149 148 147 144 146 144 139 142 136 130 122 117 113 117 114 109 112 114 121
270 283 294 290 286 243 187 229 186 243 155 140 151 166 176 178 174 170 171 175 178 180 177 175 175 169 161 161 158 152 157 156 153 161 164 159 154 155 151 150 151 147 137 133 131 128 121 112 119
316 332 328 322 321 277 118 309 231 204 142 151 164 171 175 179 176 183 183 180 179 178 175 177 177 170 170 170 168 165 166 164 168 170 172 171 167 166 164 165 175 177 152 135 120 113 105 114 115
25 25 335 308 333 326 112 270 270 161 152 162 170 175 179 185 189 190 181 174 171 171 176 180 185 176 178 173 169 164 165 168 176 172 175 180 178 173 170 176 188 173 151 145 140 133 122 118 124
24 8 311 309 327 19 152 262 287 156 157 168 175 181 184 185 193 190 180 175 174 175 177 179 181 176 180 176 170 166 165 176 178 171 176 183 180 178 174 183 187 165 153 160 169 138 141 148 148
250 316 312 296 302 347 294 270 288 175 165 175 179 182 185 195 204 189 177 172 171 170 175 178 179 177 173 165 154 157 168 181 178 180 183 179 180 179 175 183 184 168 160 166 165 141 130 136 145
160 253 286 274 286 301 288 291 289 196 163 180 188 192 194 205 198 168 165 167 167 169 175 179 182 176 169 168 172 175 186 183 182 190 184 180 180 180 179 187 178 173 177 181 169 143 140 131 129
193 282 288 296 334 0 311 316 317 203 201 197 199 201 197 187 171 169 165 170 177 177 181 185 188 180 179 183 177 171 161 172 174 180 182 183 184 185 189 184 180 180 174 171 172 155 147 155 157
225 214 242 270 333 8 16 338 329 318 279 235 220 204 191 185 185 180 174 174 175 180 187 192 191 184 183 172 148 127 111 104 145 180 188 192 192 191 189 186 182 183 179 184 185 176 165 165 174
254 229 217 246 360 315 25 300 292 296 295 260 246 213 192 184 178 175 170 176 181 186 186 185 180 181 181 168 171 171 177 180 188 185 187 185 193 192 191 187 186 184 185 188 192 184 175 157 167
217 206 184 232 162 352 360 167 284 314 272 256 250 230 188 175 169 175 178 182 179 178 177 176 171 177 178 177 182 183 186 184 168 166 175 186 196 198 193 189 187 187 190 192 190 178 179 174 172
174 73 54 46 71 23 279 185 277 254 241 260 247 232 184 163 159 161 160 156 156 159 163 165 168 177 177 179 181 185 185 177 171 178 186 191 191 197 198 193 191 190 191 193 194 187 184 187 182
113 92 32 5 16 256 282 221 253 259 253 246 238 215 164 151 147 146 148 154 153 155 160 162 171 181 180 181 184 188 188 185 189 189 193 190 188 198 205 199 194 193 196 192 187 186 191 191 189
167 139 154 186 217 276 316 243 259 275 289 254 184 156 136 130 139 148 152 151 152 156 162 167 178 185 180 183 190 189 186 188 196 196 193 195 199 202 198 196 197 196 193 191 184 189 197 193 197
140 169 155 128 152 290 290 291 301 294 1 86 124 135 137 135 140 138 140 147 154 157 169 179 180 180 181 185 186 186 188 190 197 197 193 198 202 200 193 194 197 198 192 188 181 192 199 192 198
142 142 110 123 145 222 288 284 257 264 246 202 173 162 147 137 136 134 139 147 149 149 153 161 162 170 174 174 180 184 186 193 193 186 191 197 200 194 184 189 193 195 192 187 183 191 196 191 197
113 110 109 114 145 154 223 267 231 222 216 199 196 176 159 154 149 144 144 143 136 127 135 139 143 144 150 164 171 174 181 183 182 190 196 196 194 189 186 189 190 191 191 185 184 195 191 191 194
160 162 146 148 192 170 171 261 269 229 218 189 181 172 159 151 146 144 141 132 130 133 137 137 140 144 154 154 154 165 165 162 175 191 194 187 191 191 188 183 187 194 194 189 188 197 195 190 189